2019-093L

Last updated on Mon Jan 20 2020 00:02:06 GMT+0000 (Coordinated Universal Time)

1 44889U 19093L 20019.25702608 .00000107 00000-0 20810-4 0 9990 2 44889 97.9716 96.1713 0016259 151.3457 208.8655 14.80726976 4389

Satellite not in orbit

2019-093L